664  
SXUS52 KCHS 232012  
OSOCHS  
 
MARINE OBSERVATIONS  
NATIONAL WEATHER SERVICE CHARLESTON SC  
300 PM EST SUN FEB 23 2020  
   
..DOWNTOWN CHARLESTON AND HARBOR
 
 
 
CITY SKY/WX TMP DP RH WIND PRES REMARKS  
WATERFRONT PRK N/A 56 38 50 SE7 30.09F  
   
..LAKE MOULTRIE
 
 
 
CITY SKY/WX TMP DP RH WIND PRES REMARKS  
PINOPOLIS N/A 55 37 50 N5 30.14F  
   
..LAKE AND SUPPLEMENTAL COASTAL OBSERVATIONS
 
 
 
STATION/POSITION TIME TEMP WIND PRES WAVE SWELL  
AIR SEA DIR/SP/G HT/PER HT/PER/DIR  
(UTC) (F) (DEG/KT/KT) (MB) (FT/S) (FT/S/D)  
CHRLSTN HARBOR 1930 55 55 130/ 7/ 8 1023.8F  
FORT PULASKI 1930 53 53 90/ 6/ 7 1023.9F  
SAPELO ISLAND 1900 62 120/ 4 1024.0  
WINYAH BAY 1845 53 120/ 5 1024.0  
LAKE MURRAY NOT AVBL  
ACE BASIN NERRS 1845 59 180/ 2 1024.0  
 
   
..C-MAN AND BUOY OBSERVATIONS
 
 
 
STATION/POSITION TIME TEMP WIND PRES WAVE SWELL  
AIR SEA DIR/SP/G HT/PER HT/PER/DIR  
(UTC) (F) (DEG/KT/KT) (MB) (FT/S) (FT/S/D)  
BUOY 41004 2000 71 1022.9  
BUOY 41008 1950 55 57 40/ 10/ 12 1022.9F 4/12 3/100/12  
FOLLY BEACH CMAN 2000 54 70/ 6/ 6 1023.8F  
PRITCHARDS ISLAN NOT AVBL  
CAPERS NS BUOY 1908 52 53 70/ 6/ 10 1025.5F  
FRIPP NS BUOY 1908 52 55 90/ 6/ 10 1025.2F  
5E ST. MARYS GA 2000 58 N/A 3/13 2/100/13  
 
 
STATION/POSITION TIME TEMP WIND PRES WAVE SWELL  
AIR SEA DIR/SP/G HT/PER HT/PER/DIR  
(UTC) (F) (DEG/KT/KT) (MB) (FT/S) (FT/S/D)  
FRYING PAN BUOY 2000 58 74 20/ 6/ 8 1023.3  
BUOY 41025 2000 56 74 280/ 2/ 6 1023.1  
CAPE LOOKOUT NC 2000 53 150/ 4/ 5 1023.5F  
BUOY 41002 1950 63 110/ 2/ 6 1024.1F  
BUOY 41010 2000 69 80/ 4/ 8 1022.8  
ST AUGUSTINE FL 2000 58 60 350/ 11/ 12 1022.5F  
 

 
 
 
CLICK HERE TO GO TO PREVIOUS BULLETINS.

The Nexlab SC Page
The Nexlab GA Page Main Text Page